Date,TemperatureHighF,TemperatureAvgF,TemperatureLowF,DewpointHighF,DewpointAvgF,DewpointLowF,HumidityHigh,HumidityAvg,HumidityLow,PressureMaxIn,PressureMinIn,WindSpeedMaxMPH,WindSpeedAvgMPH,GustSpeedMaxMPH,PrecipitationSumIn
2013-4-1,78,68,55,-100,-100,-100,0,0,100,0.00,40.00,0,-999,0,0.00
2013-4-2,80,68,55,-100,-100,-100,0,0,100,0.00,40.00,0,-999,0,0.00
2013-4-3,84,70,54,-100,-100,-100,0,0,100,0.00,40.00,0,-999,0,0.00
2013-4-4,78,68,63,-100,-100,-100,0,0,100,0.00,40.00,0,-999,0,0.00
2013-4-5,78,68,62,-100,-100,-100,0,0,100,0.00,40.00,0,-999,0,0.00
2013-4-6,81,67,54,-100,-100,-100,0,0,100,0.00,40.00,0,-999,0,0.00
2013-4-7,83,70,57,-100,-100,-100,0,0,100,0.00,40.00,0,-999,0,0.00
2013-4-8,67,60,56,-100,-100,-100,0,0,100,0.00,40.00,0,-999,0,0.00
2013-4-9,76,63,47,-100,-100,-100,0,0,100,0.00,40.00,0,-999,0,0.00
2013-4-10,83,62,48,-100,-100,-100,0,0,100,0.00,40.00,0,-999,0,0.00
2013-4-11,85,72,57,-100,-100,-100,0,0,100,0.00,40.00,0,-999,0,0.00
2013-4-12,87,73,58,-100,-100,-100,0,0,100,0.00,40.00,0,-999,0,0.00
2013-4-13,90,71,56,-100,-100,-100,0,0,100,0.00,40.00,0,-999,0,0.00
2013-4-14,83,68,58,-100,-100,-100,0,0,100,0.00,40.00,0,-999,0,0.00
2013-4-15,75,64,54,-100,-100,-100,0,0,100,0.00,40.00,0,-999,0,0.00
2013-4-16,69,61,49,-100,-100,-100,0,0,100,0.00,40.00,0,-999,0,0.00
2013-4-17,76,58,47,-100,-100,-100,0,0,100,0.00,40.00,0,-999,0,0.00
2013-4-18,80,62,46,-100,-100,-100,0,0,100,0.00,40.00,0,-999,0,0.00
2013-4-19,88,70,51,-100,-100,-100,0,0,100,0.00,40.00,0,-999,0,0.00
2013-4-20,89,74,58,-100,-100,-100,0,0,100,0.00,40.00,0,-999,0,0.00
2013-4-21,93,76,56,-100,-100,-100,0,0,100,0.00,40.00,0,-999,0,0.00
2013-4-22,94,78,56,-100,-100,-100,0,0,100,0.00,40.00,0,-999,0,0.00
2013-4-23,91,78,63,-100,-100,-100,0,0,100,0.00,40.00,0,-999,0,0.00
2013-4-24,93,74,58,-100,-100,-100,0,0,100,0.00,40.00,0,-999,0,0.00
2013-4-25,84,72,60,-100,-100,-100,0,0,100,0.00,40.00,0,-999,0,0.00
2013-4-26,91,73,60,-100,-100,-100,0,0,100,0.00,40.00,0,-999,0,0.00
2013-4-27,94,82,59,-100,-100,-100,0,0,100,0.00,40.00,0,-999,0,0.00
2013-4-28,98,79,60,-100,-100,-100,0,0,100,0.00,40.00,0,-999,0,0.00
2013-4-29,98,80,62,-100,-100,-100,0,0,100,0.00,40.00,0,-999,0,0.00
2013-4-30,93,80,72,-100,-100,-100,0,0,100,0.00,40.00,0,-999,0,0.00